Location: Fatehalanka
(16.3139°N, 80.8379°E)
Time: 11:27:21
(UTC+00:00)

NOSS 3-3 (C) - Pass Details

Date: 14 May 2026
Orbit: 697 x 1516 km, 63.4° (Epoch: 11 January)

Event Time Altitude Azimuth Distance (km) Brightness Sun altitude
Rises 13:52:25 0° 203° (SSW) 3,079 6.6 -12.6°
Reaches altitude 10° 13:54:43 10° 203° (SSW) 2,147 5.8 -13.1°
Maximum altitude 13:59:30 86° 114° (ESE) 713 3.3 -14.2°
Drops below altitude 10° 14:04:36 10° 26° (NNE) 2,285 6.0 -15.3°
Sets 14:07:07 0° 26° (NNE) 3,293 6.8 -15.8°
